EW9665 Weather Reports


Display with metric or nautical units.
time (UTC)temp
F
wind
direction
speed
MPH
gust
MPH
rain 1hr
in
rain 24hr
in
rain mn
in
humidity
%
barometer
mb
20260507044013 46 0 0.0 0.0 0.00 0.06 0.00 91 1016.0
20260507043515 46 0 0.0 0.0 0.00 0.06 0.00 91 1015.8
20260507043033 46 0 0.0 0.0 0.00 0.06 0.00 91 1015.8
20260507042515 46 0 0.0 0.0 0.00 0.06 0.00 91 1015.8
20260507042014 46 0 0.0 3.0 0.00 0.06 0.00 90 1015.8
20260507041530 46 0 0.0 3.0 0.00 0.06 0.00 90 1015.8
20260507041014 46 0 0.0 1.0 0.00 0.06 0.00 90 1015.7
20260507040516 46 0 0.0 1.0 0.00 0.06 0.00 90 1015.6
20260507040031 46 0 0.0 0.0 0.00 0.06 0.00 90 1015.7
20260507035515 46 0 0.0 0.0 0.00 0.07 0.00 90 1015.6
20260507035014 46 0 0.0 0.0 0.00 0.07 0.00 90 1015.6
20260507034530 46 0 0.0 0.0 0.00 0.07 0.00 90 1015.6
20260507034017 46 0 0.0 0.0 0.00 0.07 0.00 90 1015.5
20260507033517 46 0 0.0 0.0 0.00 0.07 0.00 90 1015.4
20260507033032 46 0 0.0 0.0 0.00 0.07 0.00 90 1015.5
20260507032514 46 0 0.0 1.0 0.00 0.07 0.00 90 1015.5
20260507032017 46 0 0.0 1.0 0.00 0.07 0.00 90 1015.4
20260507031534 46 0 0.0 0.0 0.00 0.07 0.00 90 1015.3
20260507031015 46 0 0.0 0.0 0.00 0.07 0.00 90 1015.4
20260507030519 46 0 0.0 0.0 0.00 0.07 0.00 90 1015.4
20260507030036 46 0 0.0 0.0 0.00 0.07 0.00 90 1015.4
20260507025516 46 0 0.0 0.0 0.00 0.08 0.00 90 1015.4
20260507025015 46 0 0.0 0.0 0.00 0.08 0.00 90 1015.3
20260507024533 46 0 0.0 0.0 0.00 0.08 0.00 90 1015.3
20260507024013 46 0 0.0 0.0 0.00 0.08 0.00 90 1015.4
20260507023515 46 0 0.0 0.0 0.00 0.08 0.00 90 1015.4
20260507023030 46 0 0.0 0.0 0.00 0.08 0.00 90 1015.3
20260507022516 46 0 0.0 0.0 0.00 0.08 0.00 90 1015.2
20260507022015 46 0 0.0 0.0 0.00 0.08 0.00 90 1015.2
20260507021530 46 0 0.0 0.0 0.00 0.08 0.00 90 1015.2
20260507021016 46 0 0.0 0.0 0.00 0.08 0.00 90 1015.1
20260507020516 46 0 0.0 0.0 0.00 0.08 0.00 90 1015.0
20260507020035 46 0 0.0 0.0 0.00 0.08 0.00 90 1015.0
20260507015520 46 0 0.0 0.0 0.00 0.09 0.00 90 1014.9
20260507015015 46 0 0.0 0.0 0.00 0.09 0.00 90 1015.0
20260507014531 46 0 0.0 0.0 0.00 0.09 0.00 90 1014.9
20260507014016 46 0 0.0 0.0 0.00 0.09 0.00 90 1015.0
20260507013516 46 0 0.0 0.0 0.00 0.09 0.00 90 1014.9
20260507013031 46 0 0.0 0.0 0.00 0.09 0.00 90 1015.0
20260507012515 46 0 0.0 0.0 0.00 0.09 0.00 90 1015.0
20260507012015 46 0 0.0 0.0 0.00 0.09 0.00 90 1015.0
20260507011537 46 0 0.0 0.0 0.00 0.09 0.00 90 1015.0
20260507011015 46 0 0.0 0.0 0.00 0.09 0.00 90 1015.0
20260507010515 46 0 0.0 0.0 0.00 0.09 0.00 90 1015.0
20260507010048 46 0 0.0 0.0 0.00 0.09 0.00 90 1015.0
20260507005513 46 0 0.0 0.0 0.00 0.12 0.00 90 1014.9
20260507005017 46 0 0.0 0.0 0.00 0.12 0.00 90 1014.9
20260507004532 46 0 0.0 0.0 0.00 0.12 0.00 90 1014.9
20260507004016 46 0 0.0 0.0 0.00 0.12 0.00 90 1014.9
20260507003515 46 0 0.0 0.0 0.00 0.12 0.00 90 1014.9
20260507003032 46 0 0.0 0.0 0.00 0.12 0.00 90 1014.9
20260507002514 46 0 0.0 0.0 0.00 0.12 0.00 90 1014.9
20260507002021 46 0 0.0 0.0 0.00 0.12 0.00 90 1014.9
20260507001530 46 0 0.0 0.0 0.00 0.12 0.00 90 1014.8
20260507001014 46 0 0.0 0.0 0.00 0.12 0.00 90 1015.0
20260507000518 47 0 0.0 0.0 0.00 0.12 0.00 90 1014.9
20260507000029 47 0 0.0 0.0 0.00 0.12 0.00 90 1014.7
20260506235517 47 0 0.0 0.0 0.00 0.14 0.00 90 1014.8
20260506235014 47 0 0.0 0.0 0.00 0.14 0.00 90 1014.7
20260506234532 47 0 0.0 0.0 0.00 0.14 0.00 90 1014.8
20260506234016 47 0 0.0 0.0 0.00 0.14 0.00 90 1014.7
20260506233517 47 0 0.0 0.0 0.00 0.14 0.00 90 1014.7
20260506233030 47 0 0.0 0.0 0.00 0.14 0.00 90 1014.6
20260506232515 47 0 0.0 0.0 0.00 0.14 0.00 90 1014.6
20260506232014 47 0 0.0 0.0 0.00 0.14 0.00 90 1014.5
20260506231533 47 0 0.0 0.0 0.00 0.14 0.00 90 1014.5
20260506231017 47 0 0.0 0.0 0.00 0.14 0.00 90 1014.5
20260506230515 47 0 0.0 0.0 0.00 0.14 0.00 90 1014.5
20260506230032 47 0 0.0 0.0 0.00 0.14 0.00 89 1014.5
20260506225515 47 0 0.0 1.0 0.00 0.18 0.00 90 1014.4
20260506225015 47 0 0.0 1.0 0.00 0.18 0.00 89 1014.3
20260506224535 47 0 0.0 0.0 0.00 0.18 0.00 89 1014.2
20260506224017 47 0 0.0 0.0 0.00 0.18 0.00 89 1014.1
20260506223515 47 0 0.0 0.0 0.00 0.18 0.00 89 1014.0
20260506223032 47 0 0.0 1.0 0.00 0.18 0.00 89 1014.0
20260506222515 47 0 0.0 1.0 0.00 0.18 0.00 89 1014.1
20260506222018 47 0 0.0 1.0 0.00 0.18 0.00 89 1014.0
20260506221529 47 0 0.0 3.0 0.00 0.18 0.00 89 1014.0
20260506221014 46 0 0.0 3.0 0.00 0.18 0.00 89 1013.9
20260506220514 46 0 0.0 0.0 0.00 0.18 0.00 89 1013.9
20260506220035 46 0 0.0 0.0 0.00 0.18 0.00 89 1014.0
20260506215519 46 0 0.0 0.0 0.00 0.22 0.18 89 1014.0
20260506215016 46 0 0.0 0.0 0.00 0.22 0.18 89 1014.0
20260506214536 46 0 0.0 0.0 0.00 0.22 0.18 89 1013.9
20260506214013 46 0 0.0 0.0 0.00 0.22 0.18 89 1013.9
20260506213517 46 0 0.0 0.0 0.00 0.22 0.18 89 1013.8
20260506213029 46 0 0.0 0.0 0.00 0.22 0.18 89 1013.8
20260506212515 46 0 0.0 0.0 0.00 0.22 0.18 89 1013.7
20260506212020 46 0 0.0 0.0 0.00 0.22 0.18 89 1013.8
20260506211534 46 0 0.0 0.0 0.00 0.22 0.18 88 1013.7
20260506211016 46 0 0.0 0.0 0.00 0.22 0.18 88 1013.7
20260506210513 46 0 0.0 0.0 0.00 0.22 0.18 88 1013.6
20260506210033 46 0 0.0 1.0 0.00 0.22 0.18 88 1013.5
20260506205514 46 0 0.0 2.0 0.00 0.26 0.18 87 1013.6
20260506205015 46 0 0.0 2.0 0.00 0.26 0.18 87 1013.5
20260506204535 46 0 0.0 2.0 0.00 0.26 0.18 86 1013.5
20260506204015 46 0 0.0 3.0 0.00 0.26 0.18 86 1013.5
20260506203515 46 0 0.0 3.0 0.00 0.26 0.18 85 1013.5
20260506203033 46 0 0.0 3.0 0.00 0.26 0.18 85 1013.4
20260506202514 46 0 0.0 2.0 0.00 0.26 0.18 84 1013.5
20260506202016 47 0 0.0 2.0 0.00 0.26 0.18 84 1013.4
20260506201538 47 355 0.0 2.0 0.00 0.26 0.18 84 1013.3
20260506201016 47 0 0.0 2.0 0.00 0.26 0.18 84 1013.3
20260506200515 47 0 0.0 2.0 0.00 0.26 0.18 83 1013.3
20260506200030 47 355 0.0 2.0 0.00 0.26 0.18 83 1013.2
20260506195516 48 0 0.0 2.0 0.00 0.31 0.18 83 1013.1
20260506195015 48 355 0.0 2.0 0.00 0.31 0.18 82 1013.1
20260506194528 48 0 0.0 3.0 0.00 0.31 0.18 82 1013.0
20260506194017 48 0 0.0 3.0 0.00 0.31 0.18 81 1013.0
20260506193515 49 353 0.0 3.0 0.00 0.31 0.18 81 1012.9
20260506193031 49 353 0.0 4.0 0.00 0.31 0.18 81 1012.8
20260506192515 49 356 0.0 4.0 0.00 0.31 0.18 81 1012.7
20260506192017 50 0 0.0 2.0 0.00 0.31 0.18 80 1012.6
20260506191533 50 0 0.0 2.0 0.00 0.31 0.18 79 1012.5
20260506191013 50 0 0.0 2.0 0.00 0.31 0.18 79 1012.5
20260506190516 50 0 0.0 3.0 0.00 0.31 0.18 78 1012.4
20260506190031 50 0 0.0 7.0 0.00 0.31 0.18 77 1012.4
20260506185515 50 6 0.0 7.0 0.00 0.31 0.18 77 1012.3
20260506185017 51 43 1.0 5.0 0.00 0.31 0.18 77 1012.3
20260506184533 51 29 1.0 4.0 0.00 0.31 0.18 77 1012.2
20260506184015 51 0 0.0 4.0 0.00 0.31 0.18 77 1012.1
20260506183513 51 0 1.0 4.0 0.00 0.31 0.18 76 1012.2
20260506183032 51 23 1.0 4.0 0.00 0.31 0.18 76 1012.1
20260506182515 52 58 1.0 5.0 0.00 0.31 0.18 76 1012.0
20260506182014 52 78 1.0 6.0 0.00 0.31 0.18 76 1012.0
20260506181532 52 48 1.0 6.0 0.00 0.31 0.18 76 1011.9
20260506181016 52 71 2.0 6.0 0.00 0.31 0.18 77 1011.8
20260506180516 53 0 1.0 5.0 0.00 0.31 0.18 76 1011.7
20260506180038 53 38 1.0 8.0 0.00 0.31 0.18 76 1011.6
20260506175516 53 67 1.0 8.0 0.00 0.31 0.18 77 1011.5
20260506175017 53 0 1.0 6.0 0.00 0.31 0.18 78 1011.5
20260506174533 54 33 2.0 5.0 0.00 0.31 0.18 78 1011.4
20260506174013 54 0 0.0 3.0 0.00 0.31 0.18 78 1011.4
20260506173515 54 18 0.0 5.0 0.00 0.31 0.18 78 1011.3
20260506173031 54 0 1.0 6.0 0.00 0.31 0.18 77 1011.3
20260506172515 54 0 1.0 7.0 0.00 0.31 0.18 77 1011.2
20260506172013 54 40 1.0 7.0 0.00 0.31 0.18 77 1011.2
20260506171539 54 66 1.0 7.0 0.00 0.31 0.18 77 1011.2
20260506171015 54 0 1.0 7.0 0.00 0.31 0.18 78 1011.2
20260506170517 54 58 1.0 7.0 0.00 0.31 0.18 79 1011.1
20260506170027 54 0 0.0 3.0 0.00 0.31 0.18 79 1011.1
20260506165516 54 0 0.0 3.0 0.00 0.31 0.18 79 1011.0
20260506165015 54 326 0.0 5.0 0.00 0.31 0.18 79 1011.0
20260506164531 54 325 1.0 5.0 0.00 0.31 0.18 79 1010.9
20260506164013 54 325 2.0 4.0 0.00 0.31 0.18 78 1010.9
20260506163517 54 316 2.0 6.0 0.00 0.31 0.18 79 1010.9
20260506163035 54 335 2.0 6.0 0.00 0.31 0.18 78 1010.9
20260506162513 55 339 2.0 5.0 0.00 0.31 0.18 78 1010.8
20260506162014 55 344 1.0 5.0 0.00 0.31 0.18 78 1010.8
20260506161532 55 0 1.0 6.0 0.00 0.31 0.18 79 1010.8
20260506161013 55 0 1.0 6.0 0.00 0.31 0.18 77 1010.8
20260506160515 55 352 0.0 7.0 0.00 0.31 0.18 78 1010.9
20260506160032 55 0 0.0 7.0 0.00 0.31 0.18 77 1010.8
20260506155512 55 319 3.0 8.0 0.00 0.31 0.18 78 1010.9
20260506155016 55 341 1.0 8.0 0.00 0.31 0.18 78 1010.8
20260506154533 55 349 2.0 9.0 0.00 0.31 0.18 78 1010.8
20260506154012 55 331 4.0 9.0 0.00 0.31 0.18 78 1010.7
20260506153513 55 356 2.0 7.0 0.00 0.31 0.18 79 1010.6
20260506153031 55 313 3.0 7.0 0.00 0.31 0.18 79 1010.6
20260506152520 55 334 2.0 7.0 0.00 0.31 0.18 82 1010.7
20260506152014 55 0 1.0 7.0 0.00 0.31 0.18 82 1010.6
20260506151533 54 291 1.0 7.0 0.00 0.31 0.18 82 1010.6
20260506151014 54 0 0.0 0.0 0.00 0.31 0.18 84 1010.7
20260506150515 54 0 0.0 0.0 0.00 0.31 0.18 84 1010.6
20260506150032 53 0 0.0 0.0 0.00 0.31 0.18 84 1010.6
20260506145515 53 0 0.0 0.0 0.00 0.31 0.18 84 1010.6
20260506145012 53 0 0.0 0.0 0.00 0.31 0.18 84 1010.7
20260506144530 53 0 0.0 0.0 0.00 0.31 0.18 84 1010.7
20260506144013 53 0 0.0 0.0 0.00 0.31 0.18 85 1010.6
20260506143514 53 0 0.0 0.0 0.00 0.31 0.18 86 1010.7
20260506143028 53 0 0.0 0.0 0.00 0.31 0.18 86 1010.8
20260506142515 53 0 0.0 0.0 0.00 0.31 0.18 85 1010.8
20260506142015 53 0 0.0 0.0 0.00 0.31 0.18 85 1010.8
20260506141530 53 0 0.0 2.0 0.00 0.31 0.18 85 1010.7
20260506141014 53 0 0.0 3.0 0.00 0.31 0.18 86 1010.8
20260506140513 53 0 0.0 6.0 0.00 0.31 0.18 85 1010.8
20260506140034 53 333 1.0 6.0 0.00 0.31 0.18 85 1010.7
20260506135513 53 333 2.0 6.0 0.00 0.31 0.18 85 1010.9
20260506135013 53 305 1.0 4.0 0.00 0.31 0.18 85 1010.8
20260506134533 53 299 1.0 7.0 0.00 0.31 0.18 86 1010.8
20260506134014 53 293 2.0 7.0 0.00 0.31 0.18 86 1010.8
20260506133515 53 300 2.0 6.0 0.00 0.31 0.18 87 1010.8
20260506133031 53 309 2.0 6.0 0.00 0.31 0.18 89 1010.8
20260506132516 52 309 0.0 4.0 0.00 0.31 0.18 89 1010.7
20260506132012 52 308 2.0 4.0 0.00 0.31 0.18 89 1010.9
20260506131534 52 308 2.0 4.0 0.00 0.31 0.18 90 1010.8
20260506131016 52 0 0.0 5.0 0.00 0.31 0.18 91 1010.8
20260506130517 52 0 1.0 5.0 0.00 0.31 0.18 91 1010.8
20260506130030 52 310 1.0 5.0 0.00 0.31 0.18 92 1010.7
20260506125515 52 318 2.0 5.0 0.00 0.31 0.18 92 1010.7
20260506125016 52 280 0.0 5.0 0.00 0.31 0.18 92 1010.6
20260506124533 52 264 2.0 5.0 0.00 0.31 0.18 92 1010.6
20260506124013 52 314 2.0 6.0 0.00 0.31 0.18 92 1010.6
20260506123515 52 289 1.0 6.0 0.00 0.31 0.18 93 1010.5
20260506123029 51 320 2.0 4.0 0.00 0.31 0.18 93 1010.6
20260506122518 51 325 1.0 5.0 0.00 0.31 0.18 93 1010.4
20260506122018 51 326 1.0 5.0 0.00 0.31 0.18 93 1010.6
20260506121534 51 328 1.0 5.0 0.00 0.31 0.18 94 1010.6
20260506121017 51 0 1.0 5.0 0.00 0.31 0.18 94 1010.5
20260506120517 51 0 0.0 6.0 0.00 0.31 0.18 94 1010.6
20260506120039 51 339 2.0 6.0 0.00 0.31 0.18 94 1010.4
20260506115516 51 335 1.0 9.0 0.00 0.31 0.18 95 1010.5
20260506115017 51 0 2.0 9.0 0.00 0.31 0.18 95 1010.4
20260506114538 51 326 3.0 9.0 0.00 0.31 0.18 95 1010.4
20260506114015 51 0 1.0 5.0 0.00 0.31 0.18 95 1010.4
20260506113519 51 0 0.0 6.0 0.00 0.31 0.18 95 1010.5
20260506113032 50 331 1.0 6.0 0.00 0.31 0.18 95 1010.4
20260506112519 50 326 0.0 7.0 0.00 0.31 0.18 95 1010.5
20260506112018 50 336 1.0 8.0 0.00 0.31 0.18 95 1010.4
20260506111529 50 0 2.0 8.0 0.00 0.31 0.18 95 1010.5
20260506111017 50 345 2.0 8.0 0.00 0.31 0.18 95 1010.5
20260506110519 50 52 0.0 4.0 0.00 0.31 0.18 96 1010.4
20260506110034 50 0 0.0 5.0 0.00 0.31 0.18 96 1010.4
20260506105519 50 0 0.0 5.0 0.00 0.32 0.18 96 1010.4
20260506105017 50 0 0.0 4.0 0.00 0.32 0.18 96 1010.6
20260506104534 50 0 0.0 1.0 0.00 0.32 0.18 95 1010.6
20260506104016 50 0 0.0 3.0 0.00 0.32 0.18 96 1010.7
20260506103517 49 0 0.0 3.0 0.00 0.32 0.18 96 1010.7
20260506103033 49 0 0.0 3.0 0.00 0.32 0.18 96 1010.6
20260506102518 49 0 0.0 4.0 0.00 0.32 0.18 95 1010.6
20260506102016 49 349 0.0 5.0 0.00 0.32 0.18 95 1010.6
20260506101530 49 0 1.0 5.0 0.00 0.32 0.18 95 1010.6
20260506101015 49 341 1.0 6.0 0.00 0.32 0.18 96 1010.6
20260506100515 48 0 0.0 6.0 0.00 0.32 0.18 96 1010.5
20260506100029 48 0 0.0 5.0 0.00 0.32 0.18 95 1010.4
20260506095516 48 0 0.0 5.0 0.00 0.32 0.18 95 1010.4
20260506095016 48 0 0.0 7.0 0.00 0.32 0.18 95 1010.3
20260506094529 48 0 1.0 7.0 0.00 0.32 0.18 95 1010.4
20260506094015 48 0 1.0 7.0 0.00 0.32 0.18 95 1010.3
20260506093520 48 0 1.0 7.0 0.00 0.32 0.18 95 1010.3
20260506093032 47 0 1.0 6.0 0.00 0.32 0.18 95 1010.3
20260506092520 47 345 0.0 7.0 0.00 0.32 0.18 95 1010.2
20260506092016 47 0 2.0 7.0 0.00 0.32 0.18 95 1010.2
20260506091531 47 331 0.0 6.0 0.00 0.32 0.18 95 1010.1
20260506091016 47 0 0.0 6.0 0.00 0.32 0.18 95 1010.2
20260506090515 47 0 0.0 4.0 0.00 0.32 0.18 95 1010.0
20260506090029 47 0 0.0 8.0 0.00 0.32 0.18 95 1010.1
20260506085515 47 0 1.0 9.0 0.00 0.32 0.18 95 1010.0
20260506085016 47 0 1.0 9.0 0.01 0.32 0.18 95 1009.9
20260506084539 47 0 2.0 9.0 0.01 0.32 0.18 95 1009.8
20260506084015 47 0 0.0 12.0 0.01 0.32 0.18 95 1009.9
20260506083516 47 48 3.0 12.0 0.01 0.32 0.18 95 1009.8
20260506083030 47 0 1.0 8.0 0.01 0.32 0.18 95 1009.8
20260506082515 47 0 2.0 9.0 0.01 0.32 0.18 95 1009.7
20260506082018 47 348 1.0 10.0 0.01 0.32 0.18 95 1009.7
20260506081533 47 2 2.0 10.0 0.01 0.32 0.18 95 1009.6
20260506081015 47 324 3.0 10.0 0.01 0.32 0.18 95 1009.6
20260506080516 47 15 2.0 10.0 0.01 0.32 0.18 95 1009.6
20260506073517 46 1 2.0 9.0 0.00 0.31 0.17 95 1009.5
20260506073029 46 62 1.0 8.0 0.00 0.31 0.17 95 1009.4
20260506072514 46 18 2.0 7.0 0.00 0.31 0.17 95 1009.5
20260506072016 46 348 1.0 6.0 0.01 0.31 0.17 95 1009.4
20260506071532 46 0 1.0 7.0 0.01 0.31 0.17 95 1009.4
20260506071017 46 322 1.0 9.0 0.01 0.31 0.17 95 1009.5
20260506070517 46 0 3.0 9.0 0.01 0.31 0.17 95 1009.4
20260506062515 46 0 0.0 6.0 0.01 0.31 0.17 95 1009.2
20260506062016 46 335 1.0 6.0 0.00 0.30 0.16 95 1009.1
20260506061538 46 335 0.0 7.0 0.00 0.30 0.16 95 1009.2
20260506061019 46 334 1.0 7.0 0.00 0.30 0.16 95 1009.2
20260506060517 46 349 2.0 7.0 0.01 0.30 0.16 95 1009.2
20260506051014 45 347 2.0 9.0 0.04 0.30 0.16 95 1009.2
20260506050514 45 339 2.0 9.0 0.03 0.29 0.15 95 1009.1
20260506045017 45 0 1.0 5.0 0.03 0.29 0.15 95 1009.1
20260506044537 45 0 1.0 6.0 0.02 0.28 0.14 95 1009.1